Location: T. Spence Memorial Observatory
(32.7356°N, 82.2098°W)
Time: 12:28:40
(UTC-04:00)

Daily predictions for brighter satellites

Satellite Brightness Start Highest point End
(mag) Time Altitude Azimuth Time Altitude Azimuth Time Altitude Azimuth
Cosmos 2074 Rocket 4.1 20:52:14 10° S 20:58:24 62° E 21:04:34 10° NNE
Cosmos 1452 Rocket 4.1 20:56:46 10° SSE 21:01:29 35° E 21:06:14 10° NE
H-2A R/B 2.8 20:58:31 10° SSE 21:02:07 54° ENE 21:05:46 10° N
Cosmos 1356 Rocket 3.5 21:00:41 10° S 21:04:54 88° W 21:09:12 10° N
Cosmos 1782 3.8 21:03:07 10° NNE 21:06:40 29° E 21:10:11 10° SE
Cosmos 1674 Rocket 4.4 21:04:43 10° NNE 21:08:46 33° E 21:12:45 10° SE
USA 186 1.7 21:06:32 10° SSE 21:09:34 65° ENE 21:12:48 10° N
ATLAS 5 CENTAUR R/B 2.5 21:04:24 10° NNW 21:10:34 74° ENE 21:17:04 10° SE
Atlas Centaur 2 1.2 21:08:36 10° W 21:12:15 55° S 21:15:19 13° ESE
SL-08 ROCKET BODY 4.4 21:06:38 10° S 21:12:36 70° E 21:18:31 10° N
OAO 3 Rocket 3.6 21:10:11 10° SW 21:14:54 45° SSE 21:19:37 10° E
Resurs 01 Rocket 3.8 21:11:38 10° SSW 21:15:20 26° W 21:19:03 10° NW
CENTAUR R/B 3.2 21:09:35 10° NNW 21:17:39 84° WSW 21:25:59 10° SSE
Cosmos 1939 Rocket 4.1 21:16:52 13° ESE 21:19:21 23° ENE 21:22:29 10° NNE
Cosmos 1184 Rocket 4.5 21:19:36 15° ESE 21:20:41 17° E 21:22:58 10° NE
Sich 1 Rocket 3.8 21:16:45 10° S 21:21:11 52° E 21:25:39 10° NNE
ISS -2.2 21:18:09 10° WSW 21:21:18 46° NW 21:24:27 10° NE
Cosmos 1408 3.8 21:20:42 14° SE 21:23:01 24° E 21:25:59 10° NE
Meteosat 1 Rocket2 4.1 21:19:01 10° WSW 21:24:04 59° S 21:30:54 13° ESE
Cosmos 1238 Rocket 4.3 21:24:33 10° NE 21:27:05 18° E 21:28:10 16° ESE
SPOT 5 4.4 21:25:17 14° ESE 21:28:22 24° ENE 21:32:32 10° NNE
COSMOS 2406 3.3 21:26:50 10° NNW 21:32:35 80° WSW 21:38:16 10° SSE
TIMED 4.5 21:28:40 10° SSW 21:33:02 87° E 21:37:25 10° NNE
Cosmos 2278 Rocket 2.2 21:27:30 10° S 21:33:03 61° ESE 21:38:39 10° NNE
Cosmos 1844 Rocket 3.3 21:27:57 10° SSW 21:33:32 60° WNW 21:39:06 10° NNE
Cosmos 1825 2.8 21:30:53 15° SSE 21:33:35 35° E 21:37:05 10° NNE
Coronas F rocket 4.1 21:32:39 10° SW 21:34:43 20° W 21:36:47 10° NNW
Cosmos 2084 3.7 21:32:11 10° SW 21:36:02 60° WNW 21:39:49 10° NNE
Cosmos 1844 4.0 21:32:49 10° SSW 21:38:33 76° WNW 21:44:22 10° NNE
FENGYUN 3A 4.4 21:34:17 10° S 21:39:30 52° W 21:44:45 10° NNW
Cosmos 1975 Rocket 4.4 21:36:22 10° NNE 21:39:45 22° ENE 21:40:51 20° E
Cosmos 676 Rocket 4.3 21:35:10 10° N 21:40:12 48° ENE 21:43:24 21° SE
Cosmos 1174 4.2 21:37:58 10° N 21:40:44 29° ENE 21:41:30 26° E
Meteor 2-10 Rocket 4.3 21:35:24 10° NNW 21:41:05 61° W 21:46:33 10° S
BREEZE-M DEB (TANK) 2.3 21:39:52 10° NW 21:41:59 65° NE 21:43:47 25° ESE
Cosmos 2341 Rocket 4.2 21:36:24 10° SSE 21:42:27 51° E 21:48:29 10° NNE
Cosmos 1908 Rocket 3.5 21:40:37 10° S 21:44:59 78° E 21:49:25 10° N
Cosmos 1733 Rocket 4.5 21:41:59 10° SSW 21:46:07 39° W 21:50:15 10° N
Intercosmos 25 4.4 21:47:59 22° E 21:47:59 22° E 21:50:17 10° NE
Cosmos 1378 Rocket 3.8 21:46:21 10° N 21:50:32 47° E 21:52:23 28° SE
COS B Rocket 3.3 21:47:02 10° NNE 21:50:48 48° E 21:51:56 34° SE
Abrixas 3.5 21:48:25 10° SSW 21:50:21 29° S 21:50:21 29° S
PSLV R/B 3.7 21:48:17 10° WNW 21:51:38 52° SSW 21:52:45 35° SSE
Cosmos 962 Rocket 4.5 21:47:46 10° S 21:53:48 64° E 21:59:57 10° NNE
Cosmos 2082 Rocket 3.8 21:53:23 10° NNE 21:57:11 18° ENE 21:58:57 16° E
CZ-4 DEB 4.1 21:56:28 14° SSW 21:58:51 36° W 22:01:49 10° NNW
SL-27 R/B 3.8 21:56:43 10° NNW 22:00:04 36° WSW 22:02:33 15° SSW
Nimbus 7 Rocket 4.3 21:54:35 10° NNE 22:00:33 78° ESE 22:06:34 10° S
deb Chang Zheng 4 3.6 21:56:20 10° N 22:00:46 83° WNW 22:05:12 10° SSW
GPS 2-05 Rocket1 3.6 22:02:10 10° W 22:05:49 53° N 22:07:26 28° ENE
Cosmos 2154 Rocket 4.1 22:01:12 10° S 22:07:23 75° W 22:13:36 10° N
EO 1 Delta rocket 4.1 22:03:22 10° N 22:09:06 83° W 22:13:38 11° SSW
Cosmos 2297 3.7 22:03:45 10° S 22:09:19 61° ESE 22:14:58 10° NNE
Cosmos 1295 Rocket 4.5 22:07:12 20° SSE 22:11:38 64° E 22:17:50 10° NNE
Envisat 2.9 22:09:02 27° SSE 22:11:53 88° WSW 22:17:00 10° NNW
Cosmos 1862 4.1 22:09:36 10° SSW 22:13:33 51° W 22:17:32 10° N
H-2A R/B 2.0 22:12:34 36° S 22:14:19 84° WSW 22:18:34 10° NNW
SEDSat Delta rocket 2.9 22:12:22 10° WSW 22:16:37 53° SSE 22:16:42 53° SSE
APEX 3.4 22:17:49 20° SSW 22:20:16 76° WNW 22:24:58 10° NNE
CZ-3C R/B 3.3 21:52:57 10° WSW 22:21:08 37° S 22:23:56 30° SSE
OAO 1 Rocket 4.4 22:17:11 10° W 22:22:31 82° NNW 22:25:16 29° ENE
Cosmos 1606 3.7 22:19:26 10° NNW 22:23:11 44° W 22:24:55 26° SSW
COSMOS 2487 2.3 22:19:47 10° NNW 22:23:24 90° NNW 22:23:26 88° SSE
Cosmos 489 Rocket 4.4 22:17:21 10° NNW 22:23:33 70° ENE 22:25:48 40° SE
Cosmos 1420 Rocket 4.2 22:18:46 10° SSW 22:24:00 70° WNW 22:29:13 10° NNE
Cosmos 614 Rocket 4.4 22:21:33 10° N 22:26:19 40° ENE 22:26:48 39° E
ERS-1 Rocket 4.1 22:22:47 15° SSW 22:26:35 39° W 22:31:18 10° NNW
MetOp-B 4.1 22:25:26 45° SE 22:27:05 73° ENE 22:32:25 10° N
CZ-4 SHROUD 4.4 22:32:36 39° N 22:32:36 39° N 22:34:40 10° N
Cosmos 2366 rocket 4.1 22:32:19 45° SE 22:33:53 56° E 22:40:03 10° NNE
Cosmos 1140 Rocket 3.3 22:33:32 10° NNW 22:38:42 88° ENE 22:39:35 62° SSE
Okean 3 4.1 22:36:07 10° NNW 22:40:16 51° W 22:41:10 42° SW
H-2A R/B 3.2 22:42:14 29° ENE 22:42:14 29° ENE 22:46:36 10° NNE
USA 234 3.5 22:37:30 10° NE 22:43:02 45° ESE 22:43:02 45° ESE
ARGOS 3.1 22:46:31 63° ESE 22:46:58 66° ENE 22:52:17 10° N
Okean 2 Rocket 4.3 22:45:11 23° SW 22:47:28 40° W 22:51:37 10° N
Timation 1 Rocket 4.3 22:46:57 60° SE 22:47:33 64° ESE 22:53:29 10° NNE
SL-08 RB Rocket 4.1 22:49:27 52° NE 22:49:27 52° NE 22:53:27 10° N
CZ-4B R/B 3.3 22:44:32 10° N 22:49:27 80° WNW 22:50:13 62° SSW
YAOGAN 6 3.9 22:56:01 37° NW 22:56:01 37° NW 22:58:31 10° NNW
Terra 3.2 22:56:47 27° NE 22:56:47 27° NE 22:59:50 10° N
SPOT 1/Viking Rocket 3.4 22:57:07 77° SSW 22:57:29 84° WSW 23:02:43 10° NNW
OAO 3 Rocket 3.3 22:53:25 10° W 22:58:14 77° NW 22:58:14 77° NW
Cosmos 1242 Rocket 3.9 22:55:12 10° NNW 22:58:02 38° WNW 22:58:02 38° WNW
Meteor 1-20 Rocket 4.3 23:01:01 60° ENE 23:01:01 60° ENE 23:05:57 10° NNE
Atlas Centaur 2 3.7 22:57:37 10° WSW 22:57:58 12° WSW 22:57:58 12° WSW
Cosmos 2218 Rocket 4.2 23:00:21 39° SSW 23:02:52 71° W 23:09:16 10° N
SPOT 5 4.3 23:04:32 30° SW 23:06:07 36° W 23:11:01 10° NNW
Meteor 1-25 Rocket 4.2 23:15:14 74° SW 23:15:38 78° W 23:21:29 10° N
Meteor 2-19 Rocket 4.3 23:16:38 80° SSW 23:16:59 86° W 23:23:08 10° N
Cosmos 1833 Rocket 2.8 23:12:25 10° NNW 23:17:28 65° NNE 23:17:28 65° NNE
Lacrosse 5 3.9 23:25:05 18° NE 23:25:05 18° NE 23:26:20 10° NE
Cosmos 1727 Rocket 3.8 23:16:06 10° N 23:22:18 86° W 23:22:23 85° SW
USA 229 DEB 3.6 23:26:10 10° NNW 23:33:20 85° ENE 23:33:32 83° ESE
USA 229 3.6 23:26:16 10° NNW 23:33:26 84° ENE 23:33:38 83° E
BREEZE-M DEB (TANK) 4.1 23:33:40 10° NW 23:38:18 37° WNW 23:38:18 37° WNW
Cosmos 2082 Rocket 2.8 23:36:03 10° NNW 23:40:49 50° WNW 23:40:49 50° WNW
